[[{"header":{"parameterUnit":"m.s-1","parameterCategory":1,"la1":30.2991,"la2":30.254,"lo1":-89.0895,"lo2":-89.0444,"dy":0.0017,"dx":0.0017,"nx":28,"ny":28,"refTime":"2024-04-26T21:00:00:Z","depth":0,"parameterNumber":2,"parameterNumberName":"U-component_of_WINDS"},"data":[0,0,0,0,0,0,0,0,0,0,0,0,0,0,0,0,0,0,0,0,0,0,0,0,0,0,0,0,0,0,0,0,0,0,0,0,0,0,0,0,0,0,0,0,0,0,0,0,0,0,0,0,0,0,0,0,0,0,-7.0543,-7.0544,0,-7.0668,-7.0669,-7.0671,-7.0689,-7.0688,-7.0687,-7.0686,-7.081,-7.0814,-7.0819,0,0,0,0,0,0,0,0,0,0,0,0,0,-7.0318,-7.0322,-7.0542,-7.0544,-7.0546,-7.0668,-7.0669,-7.0671,-7.0689,-7.0688,-7.0686,-7.0685,-7.0809,-7.0814,-7.0819,0,0,0,0,0,0,0,0,0,0,0,0,0,-7.0426,-7.0323,-7.0542,-7.0569,-7.0573,-7.0667,-7.0669,-7.0671,-7.0689,-7.0688,-7.0686,-7.0684,-7.0807,-7.0813,-7.082,-7.0894,0,0,-7.084,-7.0843,0,0,0,0,0,0,0,0,-7.042,-7.0434,-7.0564,-7.0568,-7.0572,-7.0661,-7.0636,-7.0746,-7.069,-7.0645,-7.0686,-7.0684,-7.0762,-7.0772,-7.0799,-7.09,-7.0905,-7.084,-7.0844,-7.0847,-7.0849,0,0,0,0,0,0,0,-7.0412,-7.0429,-7.0592,-7.0566,-7.0571,-7.0575,-7.0589,-7.0657,-7.0711,-7.0649,-7.0651,-7.0665,-7.0764,-7.0793,-7.0802,-7.0907,-7.084,-7.0846,-7.085,-7.0853,-7.1077,-7.1079,0,0,0,0,0,0,-7.04,-7.0423,-7.0588,-7.0596,-7.049,-7.058,-7.0596,-7.0634,-7.0711,-7.0721,-7.0667,-7.0666,-7.0782,-7.0794,-7.0806,-7.0898,-7.0847,-7.0853,-7.0857,-7.1075,-7.1078,-7.108,0,0,0,0,0,0,-7.0395,-7.0415,-7.0583,-7.051,-7.0532,-7.0586,-7.0629,-7.0638,-7.0666,-7.0724,-7.0734,-7.0686,-7.0781,-7.0797,-7.0873,-7.0903,-7.0856,-7.0862,-7.1073,-7.1076,-7.1079,-7.1083,0,0,0,0,0,0,-7.0389,-7.0413,-7.0442,-7.051,-7.0535,-7.0647,-7.0631,-7.0641,-7.0678,-7.0678,-7.0745,-7.0754,-7.0781,-7.0863,-7.0879,-7.0911,-7.0867,-7.107,-7.1074,-7.1078,-7.108,-7.1085,-7.109,0,0,0,0,0,-7.0381,-7.0437,-7.0443,-7.0463,-7.0573,-7.0649,-7.0663,-7.0694,-7.0681,-7.071,-7.0747,-7.0752,-7.0898,-7.0871,-7.0889,-7.0923,-7.1068,-7.1073,-7.1077,-7.1078,-7.1084,-7.109,0,0,0,0,0,0,-7.0368,-7.0446,-7.0454,-7.0534,-7.0585,-7.0652,-7.0689,-7.07,-7.0754,-7.0752,-7.0787,-7.0802,-7.0876,-7.0908,-7.0876,-7.1,-7.0982,-7.099,-7.0976,-7.0983,-7.0988,-7.0977,-7.0873,0,0,0,0,0,-7.0375,-7.0431,-7.0496,-7.056,-7.0586,-7.0634,-7.0668,-7.0688,-7.0741,-7.0762,-7.0805,-7.0856,-7.0914,-7.0951,-7.1007,-7.1087,-7.1101,-7.1119,-7.1124,-7.1128,-7.1134,-7.1179,-7.1188,-7.1095,-7.1095,-7.1095,0,0,-7.0388,-7.0438,-7.0471,-7.0559,-7.0601,-7.0658,-7.0651,-7.0711,-7.0754,-7.0771,-7.0845,-7.0879,-7.0939,-7.1017,-7.1053,-7.1045,-7.1164,-7.1134,-7.1137,-7.114,-7.1184,-7.1193,-7.1201,-7.1098,-7.1097,-7.1097,0,0,-7.0442,-7.0486,-7.0544,-7.0588,-7.0652,-7.0684,-7.0698,-7.0765,-7.0788,-7.0864,-7.0879,-7.093,-7.1028,-7.107,-7.1105,-7.1179,-7.1185,-7.1197,-7.1221,-7.1265,-7.1272,-7.1279,-7.1304,-7.1313,-7.1203,-7.1203,-7.1203,0,-7.045,-7.0537,-7.0573,-7.0633,-7.0671,-7.0693,-7.0753,-7.0792,-7.0871,-7.0897,-7.0888,-7.1014,-7.1055,-7.1143,-7.1162,-7.119,-7.1206,-7.1187,-7.1269,-7.1276,-7.1282,-7.1306,-7.1316,-7.1204,-7.1204,-7.1204,-7.1204,0,-7.0543,-7.0604,-7.0644,-7.0721,-7.0764,-7.0824,-7.0868,-7.0908,-7.0926,-7.0959,-7.1036,-7.1088,-7.1155,-7.1179,-7.1195,-7.127,-7.1263,-7.1262,-7.1243,-7.1291,-7.1314,-7.1324,-7.1205,-7.1205,-7.1205,-7.1204,0,0,-7.0587,-7.0687,-7.0701,-7.0737,-7.0812,-7.0859,-7.092,-7.0988,-7.1021,-7.1076,-7.1127,-7.1213,-7.1212,-7.1251,-7.1274,-7.1312,-7.1367,-7.1306,-7.1308,-7.1313,-7.1452,-7.145,-7.1461,-7.1374,-7.1376,-7.1378,-7.1446,0,-7.0648,-7.0758,-7.0794,-7.0885,-7.0941,-7.0965,-7.1019,-7.1071,-7.1104,-7.1157,-7.1194,-7.1253,-7.1249,-7.1273,-7.1312,-7.1352,-7.1395,-7.1348,-7.142,-7.1423,-7.1401,-7.1473,-7.1472,-7.1533,-7.1456,-7.1457,-7.1459,0,-7.0731,-7.079,-7.0887,-7.0957,-7.0982,-7.1029,-7.1095,-7.1146,-7.1206,-7.1228,-7.1273,-7.1294,-7.1359,-7.1341,-7.1431,-7.1398,-7.1431,-7.1456,-7.1459,-7.1464,-7.1441,-7.1477,-7.1554,-7.1562,-7.1474,-7.1472,-7.1471,0,-7.0751,-7.0855,-7.0927,-7.0957,-7.104,-7.1073,-7.1109,-7.1168,-7.1207,-7.1265,-7.1291,-7.1356,-7.139,-7.144,-7.1478,-7.1461,-7.1564,-7.1549,-7.1583,-7.1582,-7.16,-7.1597,-7.168,-7.1626,-7.1626,-7.1626,-7.1626,0,-7.0813,-7.0871,-7.0937,-7.098,-7.1047,-7.1089,-7.1153,-7.1191,-7.1244,-7.1295,-7.1321,-7.1368,-7.1417,-7.1471,-7.1501,-7.1571,-7.1587,-7.1606,-7.1612,-7.1602,-7.1599,-7.1621,-7.1616,-7.1629,-7.1628,-7.1628,-7.1627,0,-7.0844,-7.0891,-7.0971,-7.1045,-7.1065,-7.111,-7.1173,-7.1217,-7.1254,-7.1319,-7.1336,-7.1394,-7.1459,-7.1503,-7.1586,-7.1607,-7.1682,-7.1689,-7.1661,-7.1664,-7.1695,-7.1691,-7.1792,-7.1807,-7.1745,-7.1746,-7.1746,0,-7.0879,-7.0925,-7.1005,-7.1042,-7.1078,-7.1138,-7.1179,-7.1223,-7.1264,-7.1338,-7.1373,-7.1441,-7.1496,-7.16,-7.1649,-7.1713,-7.172,-7.1752,-7.173,-7.1718,-7.1718,-7.1714,-7.1718,-7.1753,-7.1754,-7.1754,-7.1755,0,-7.0935,-7.0957,-7.1015,-7.1082,-7.1131,-7.1186,-7.124,-7.1269,-7.1323,-7.1369,-7.1437,-7.1481,-7.1568,-7.1634,-7.1704,-7.1741,-7.1757,-7.1762,-7.1773,-7.176,-7.1742,-7.1751,-7.1668,-7.1758,-7.1758,-7.1758,-7.1757,-7.1757,-7.0968,-7.101,-7.1073,-7.1138,-7.1184,-7.1236,-7.1281,-7.1325,-7.1382,-7.1457,-7.148,-7.1551,-7.1612,-7.1708,-7.1747,-7.1803,-7.1799,-7.1815,-7.1819,-7.1822,-7.1821,-7.1736,-7.1816,-7.1816,-7.1816,-7.1816,-7.1816,0,-7.1023,-7.1066,-7.1126,-7.1203,-7.1254,-7.1268,-7.133,-7.1371,-7.1433,-7.149,-7.1546,-7.1625,-7.1691,-7.1746,-7.1814,-7.1849,-7.1857,-7.1865,-7.1861,-7.1869,-7.182,-7.1803,-7.1856,-7.1856,-7.1856,-7.1856,-7.1856,-7.1856,-7.1058,-7.113,-7.1159,-7.1255,-7.1298,-7.1368,-7.1402,-7.145,-7.1496,-7.1583,-7.1639,-7.1675,-7.1732,-7.1805,-7.1866,-7.1881,-7.1903,-7.1909,-7.1925,-7.1877,-7.1872,-7.1868,-7.1852,-7.1914,-7.1914,-7.1968,-7.1969,-7.1969]},{"header":{"parameterUnit":"m.s-1","parameterCategory":1,"la1":30.2991,"la2":30.254,"lo1":-89.0895,"lo2":-89.0444,"dy":0.0017,"dx":0.0017,"nx":28,"ny":28,"refTime":"2024-04-26T21:00:00:Z","depth":0,"parameterNumber":3,"parameterNumberName":"V-component_of_WINDS"},"data":[0,0,0,0,0,0,0,0,0,0,0,0,0,0,0,0,0,0,0,0,0,0,0,0,0,0,0,0,0,0,0,0,0,0,0,0,0,0,0,0,0,0,0,0,0,0,0,0,0,0,0,0,0,0,0,0,0,0,5.1962,5.1963,0,5.2034,5.2035,5.2036,5.2104,5.2105,5.2106,5.2107,5.2175,5.2176,5.2177,0,0,0,0,0,0,0,0,0,0,0,0,0,5.1881,5.1883,5.1962,5.1963,5.1964,5.2034,5.2035,5.2036,5.2104,5.2105,5.2106,5.2107,5.2175,5.2176,5.2178,0,0,0,0,0,0,0,0,0,0,0,0,0,5.1931,5.1883,5.1962,5.2006,5.2011,5.2034,5.2035,5.2036,5.2104,5.2105,5.2106,5.2108,5.2175,5.2176,5.2178,5.2161,0,0,5.2182,5.2183,0,0,0,0,0,0,0,0,5.1928,5.1934,5.1999,5.2003,5.2009,5.2062,5.2032,5.2078,5.2103,5.2068,5.2107,5.2108,5.2136,5.2141,5.2151,5.2164,5.2167,5.2182,5.2183,5.2184,5.2184,0,0,0,0,0,0,0,5.1925,5.1931,5.1991,5.2,5.2006,5.2022,5.2031,5.2041,5.2094,5.2072,5.2077,5.2085,5.2139,5.215,5.2154,5.2168,5.2182,5.2184,5.2185,5.2185,5.2174,5.2173,0,0,0,0,0,0,5.1915,5.1928,5.1988,5.1993,5.1971,5.2023,5.2032,5.2043,5.2094,5.2103,5.2083,5.2088,5.2147,5.2152,5.2156,5.2142,5.2184,5.2185,5.2186,5.2175,5.2174,5.2172,0,0,0,0,0,0,5.1913,5.192,5.1985,5.1962,5.1971,5.2023,5.2035,5.2044,5.2055,5.2103,5.2112,5.2085,5.2148,5.2154,5.216,5.2145,5.2186,5.2187,5.2176,5.2175,5.2173,5.2112,0,0,0,0,0,0,5.191,5.1918,5.1913,5.1961,5.1972,5.1989,5.2034,5.2044,5.2058,5.2064,5.2107,5.2115,5.2149,5.2158,5.2162,5.2148,5.2189,5.2178,5.2176,5.2174,5.2116,5.2109,5.2103,0,0,0,0,0,5.1907,5.1891,5.1912,5.1919,5.1967,5.1988,5.1994,5.2035,5.2056,5.2051,5.2083,5.2114,5.2146,5.2158,5.2163,5.215,5.2179,5.2176,5.2174,5.2119,5.211,5.2103,0,0,0,0,0,0,5.1837,5.1898,5.1922,5.1921,5.1949,5.1999,5.1994,5.2024,5.2045,5.2049,5.2098,5.2107,5.2108,5.2129,5.2141,5.2138,5.2167,5.2165,5.2124,5.2116,5.2109,5.2104,5.219,0,0,0,0,0,5.1822,5.1835,5.1887,5.1881,5.1894,5.1941,5.1952,5.1982,5.2012,5.2023,5.2055,5.2082,5.2099,5.2108,5.2126,5.212,5.2131,5.2113,5.2106,5.2101,5.2099,5.2099,5.2093,5.2163,5.2163,5.2163,0,0,5.1789,5.1824,5.1829,5.1868,5.1893,5.1905,5.1951,5.1961,5.197,5.2024,5.2033,5.2058,5.2091,5.2092,5.2093,5.2109,5.2082,5.2097,5.2092,5.2093,5.2096,5.2089,5.2083,5.2161,5.2162,5.2162,0,0,5.1737,5.1765,5.1765,5.179,5.1828,5.1861,5.186,5.1907,5.1926,5.1936,5.1978,5.199,5.2017,5.204,5.2055,5.2016,5.2046,5.202,5.1985,5.1985,5.198,5.1975,5.1963,5.1958,5.2018,5.2018,5.2018,0,5.1692,5.1713,5.176,5.1769,5.1786,5.1838,5.1839,5.186,5.1901,5.1911,5.1929,5.1967,5.1993,5.2001,5.1992,5.2002,5.2004,5.2015,5.1977,5.1973,5.1969,5.1958,5.1953,5.2014,5.2015,5.2015,5.2015,0,5.1657,5.1671,5.1666,5.1709,5.1724,5.1729,5.1776,5.1787,5.1816,5.1846,5.1857,5.189,5.1917,5.1921,5.1948,5.1934,5.1943,5.1968,5.1999,5.1959,5.1949,5.1945,5.201,5.2011,5.2012,5.2013,0,0,5.1561,5.1632,5.1629,5.165,5.1698,5.171,5.1717,5.1746,5.1755,5.1782,5.179,5.1814,5.1839,5.1856,5.1886,5.1887,5.1856,5.1912,5.1914,5.1902,5.1845,5.1827,5.1821,5.1877,5.1876,5.1876,5.1843,0,5.1518,5.1537,5.1581,5.1585,5.16,5.1652,5.1659,5.1688,5.1718,5.1734,5.1766,5.1783,5.1813,5.1824,5.1827,5.1859,5.1846,5.1862,5.1885,5.1885,5.1876,5.1816,5.1796,5.1763,5.1839,5.1839,5.1838,0,5.1471,5.1498,5.1505,5.1556,5.1564,5.1569,5.1601,5.1616,5.1651,5.1673,5.1694,5.1729,5.174,5.1768,5.1785,5.1795,5.1807,5.1825,5.1825,5.1829,5.186,5.1819,5.1754,5.1749,5.1833,5.1833,5.1833,0,5.1403,5.1441,5.1451,5.1467,5.1525,5.1529,5.1553,5.159,5.1606,5.1633,5.1644,5.1671,5.1686,5.1706,5.1747,5.1764,5.176,5.1791,5.1778,5.1777,5.1775,5.1775,5.1711,5.1781,5.1781,5.1781,5.1781,0,5.1351,5.1354,5.1422,5.1428,5.1433,5.1484,5.1487,5.1516,5.1549,5.1562,5.1607,5.1617,5.1671,5.1688,5.172,5.173,5.1736,5.1754,5.1763,5.1751,5.1748,5.1759,5.1763,5.178,5.178,5.178,5.1781,0,5.1276,5.1321,5.1336,5.1392,5.1406,5.1407,5.1454,5.1462,5.1495,5.1511,5.1517,5.1569,5.1591,5.1635,5.1668,5.1691,5.1694,5.1708,5.1683,5.1688,5.1674,5.1675,5.1616,5.1611,5.1682,5.1681,5.168,0,5.124,5.1244,5.1301,5.1314,5.1337,5.1357,5.1374,5.1424,5.144,5.1483,5.1486,5.1513,5.1537,5.1571,5.1611,5.1638,5.1654,5.1631,5.1658,5.1647,5.1656,5.1655,5.1657,5.1625,5.1624,5.1623,5.1623,0,5.1173,5.1197,5.1221,5.1253,5.1274,5.1301,5.1331,5.1338,5.1395,5.1411,5.1436,5.1455,5.1492,5.1518,5.1552,5.1576,5.1609,5.1614,5.1613,5.1601,5.1587,5.1596,5.1668,5.1615,5.1616,5.1617,5.1617,5.1617,5.1118,5.1125,5.1168,5.1194,5.1222,5.125,5.1261,5.1297,5.1319,5.1355,5.1383,5.1406,5.1444,5.1493,5.1515,5.1534,5.155,5.1547,5.1547,5.1546,5.1542,5.1583,5.154,5.154,5.154,5.1541,5.1541,0,5.1056,5.1086,5.111,5.1152,5.1172,5.1204,5.1239,5.1254,5.1275,5.1308,5.1333,5.1363,5.1389,5.1432,5.1462,5.1469,5.1485,5.1475,5.1476,5.1481,5.1525,5.1524,5.1462,5.1462,5.1462,5.1462,5.1462,5.1462,5.1025,5.104,5.1069,5.1098,5.1129,5.1154,5.1172,5.1197,5.1225,5.1257,5.1281,5.1309,5.1347,5.1381,5.1407,5.1419,5.1428,5.1414,5.1431,5.1471,5.1478,5.1485,5.1484,5.1415,5.1415,5.1386,5.1386,5.1385]}]]